This is the latest recevied weather packets stored in our database for station/object MB7UUE. If no packets are shown the sender has not sent any weather packets the latest 10 day(s).
| Time | Temp. | Humidity | Pressure | Rain* | Wind** | Luminosity | Snow |
|---|---|---|---|---|---|---|---|
| 1788168825 | 18.89° C | 64% | 1009.3 hPa | 0 mm | - | - | - |
| 1788167685 | 18.89° C | 65% | 1009 hPa | 0 mm | - | - | - |
| 1788166544 | 18.33° C | 65% | 1008.7 hPa | 0 mm | - | - | - |
| 1788165404 | 18.33° C | 66% | 1008.4 hPa | 0 mm | - | - | - |
| 1788164265 | 17.22° C | 71% | 1008.1 hPa | 0 mm | - | - | - |
| 1788163124 | 17.22° C | 71% | 1007.9 hPa | 0 mm | - | - | - |
| 1788162147 | 16.67° C | 73% | 1007.6 hPa | 0 mm | - | - | - |
| 1788161007 | 16.67° C | 75% | 1007.2 hPa | 0 mm | - | - | - |
| 1788159866 | 16.11° C | 75% | 1007.1 hPa | 0 mm | - | - | - |
| 1788158727 | 16.11° C | 76% | 1006.9 hPa | 0 mm | - | - | - |
| 1788157587 | 15.56° C | 77% | 1006.6 hPa | 0 mm | - | - | - |
| 1788156446 | 15.56° C | 78% | 1006.4 hPa | 0 mm | - | - | - |
| 1788155306 | 15.56° C | 78% | 1006.1 hPa | 0 mm | - | - | - |
| 1788154167 | 15.56° C | 78% | 1006 hPa | 0 mm | - | - | - |
| 1788153027 | 15.56° C | 76% | 1005.7 hPa | 0 mm | - | - | - |
| 1788151887 | 15.56° C | 76% | 1005.4 hPa | 0 mm | - | - | - |
| 1788150747 | 16.11° C | 75% | 1005.1 hPa | 0 mm | - | - | - |
| 1788149606 | 16.11° C | 75% | 1005.1 hPa | 0 mm | - | - | - |
| 1788148467 | 16.11° C | 82% | 1005 hPa | 0 mm | - | - | - |
| 1788147328 | 16.67° C | 82% | 1004.8 hPa | 0 mm | - | - | - |
| 1788146188 | 16.67° C | 82% | 1004.8 hPa | 0 mm | - | - | - |
| 1788145046 | 16.67° C | 83% | 1004.5 hPa | 0 mm | - | - | - |
| 1788143907 | 16.67° C | 83% | 1004.5 hPa | 0 mm | - | - | - |
| 1788142767 | 16.67° C | 83% | 1004.4 hPa | 0 mm | - | - | - |
| 1788141627 | 16.67° C | 82% | 1004.2 hPa | 0.25 mm | - | - | - |
* Rain latest hour (hover to see other rain measurements)
** Current wind speed in m/s (hover to see current wind gust speed)